Belmar-Farmingdale, NJ

2:47 AM EST on December 14, 2019 (GMT -0500)
Allaire

Weather History for KBLM - October, 2019

Change the Weather History Date:

Tuesday, October 29, 2019

  Actual Average Record
Temperature  
Mean Temperature 58 °F -  
Max Temperature 61 °F 57 °F 71 °F (2014)
Min Temperature 55 °F 41 °F 30 °F (2001)
Degree Days  
Heating Degree Days 7    
Growing Degree Days 8 (Base 50)    
Moisture  
Dew Point 58 °F    
Average Humidity 98    
Maximum Humidity 100    
Minimum Humidity 93    
Precipitation  
Precipitation 0.11 in - - ()
Sea Level Pressure  
Sea Level Pressure 30.28 in    
Wind  
Wind Speed 6 mph ()    
Max Wind Speed 12 mph    
Max Gust Speed -    
Visibility 3.6 miles    
Events Fog , Rain    
Averages and records for this station are not official NWS values.
T = Trace of Precipitation, MM = Missing Value Source: Averaged Metar Reports

Daily Weather History Graph

Daily Weather History Graph

Search for Another Location

Airport or City:

Astronomy

Oct. 29, 2019 Rise Set
Actual Time 7:22 AM EDT 5:57 PM EDT
Civil Twilight 6:54 AM EDT 6:25 PM EDT
Nautical Twilight 6:22 AM EDT 6:57 PM EDT
Astronomical Twilight 5:50 AM EDT 7:29 PM EDT
Moon 8:52 AM EDT (10/29) 7:20 PM EDT (10/29)
Length of Visible Light 11h 31m
Length of Day
10h 35m
Waxing Crescent, 3% of the Moon is Illuminated
Oct 29
Waxing Crescent
Nov 4
First Quarter
Nov 12
Full
Nov 19
Last Quarter
Nov 26
New

Hourly Weather History & Observations

Time (EDT) Temp. Dew Point Humidity Pressure Visibility Wind Dir Wind Speed Gust Speed Precip Events Conditions
12:12 AM 55.4 °F 55.4 °F 100% 30.28 in 10.0 mi East 5.8 mph - 0.00 in   Overcast
12:20 AM 55.4 °F 55.4 °F 100% 30.28 in 10.0 mi East 6.9 mph - 0.00 in   Overcast
12:56 AM 55.9 °F 55.0 °F 97% 30.29 in 4.0 mi East 8.1 mph - 0.01 in Rain Light Rain
1:26 AM 55.4 °F 55.4 °F 100% 30.29 in 4.0 mi East 10.4 mph - 0.00 in Rain Light Rain
1:56 AM 55.9 °F 55.0 °F 97% 30.30 in 6.0 mi East 8.1 mph - 0.01 in Rain Light Rain
2:56 AM 55.9 °F 55.0 °F 97% 30.29 in 6.0 mi East 9.2 mph - 0.00 in Rain Light Rain
3:39 AM 55.4 °F 55.4 °F 100% 30.29 in 7.0 mi East 9.2 mph - 0.01 in   Overcast
3:56 AM 55.9 °F 55.0 °F 97% 30.29 in 7.0 mi East 8.1 mph - 0.01 in Rain Light Rain
4:56 AM 55.9 °F 54.0 °F 93% 30.27 in 10.0 mi East 8.1 mph - 0.00 in   Overcast
5:56 AM 55.9 °F 55.0 °F 97% 30.28 in 10.0 mi ENE 5.8 mph - N/A   Overcast
6:33 AM 55.4 °F 55.4 °F 100% 30.29 in 2.5 mi ENE 5.8 mph - 0.01 in Rain Light Rain
6:42 AM 55.4 °F 55.4 °F 100% 30.29 in 2.5 mi NE 4.6 mph - 0.01 in Rain Light Rain
6:56 AM 55.9 °F 55.0 °F 97% 30.29 in 2.5 mi NNE 4.6 mph - 0.02 in Rain Light Rain
7:04 AM 55.4 °F 55.4 °F 100% 30.29 in 3.0 mi ENE 5.8 mph - 0.00 in Rain Light Rain
7:12 AM 55.4 °F 55.4 °F 100% 30.29 in 2.5 mi ENE 6.9 mph - 0.00 in Rain Light Rain
7:18 AM 55.4 °F 55.4 °F 100% 30.29 in 1.8 mi ENE 6.9 mph - 0.01 in Rain Light Rain
7:56 AM 57.0 °F 55.9 °F 96% 30.29 in 2.0 mi East 9.2 mph - 0.01 in Rain Light Rain
8:04 AM 57.2 °F 55.4 °F 94% 30.28 in 1.5 mi ENE 9.2 mph - 0.00 in Rain Light Rain
8:56 AM 57.0 °F 57.0 °F 100% 30.30 in 1.5 mi East 8.1 mph - 0.01 in Rain Light Rain
9:42 AM 57.2 °F 57.2 °F 100% 30.30 in 1.5 mi ENE 6.9 mph - 0.01 in Rain Light Rain
9:56 AM 57.9 °F 57.9 °F 100% 30.31 in 1.5 mi East 5.8 mph - 0.01 in Rain Light Rain
10:12 AM 57.2 °F 57.2 °F 100% 30.30 in 3.0 mi East 11.5 mph - 0.01 in Rain Light Rain
10:21 AM 57.2 °F 57.2 °F 100% 30.30 in 2.0 mi East 6.9 mph - 0.01 in   Overcast
10:39 AM 57.2 °F 57.2 °F 100% 30.30 in 1.8 mi East 9.2 mph - 0.01 in Rain Light Rain
10:56 AM 57.9 °F 57.9 °F 100% 30.31 in 2.0 mi East 11.5 mph - 0.01 in Rain Light Rain
11:11 AM 59.0 °F 57.2 °F 94% 30.30 in 1.5 mi East 10.4 mph - 0.00 in Rain Light Rain
11:32 AM 59.0 °F 57.2 °F 94% 30.31 in 3.0 mi East 11.5 mph - 0.00 in Rain Light Rain
11:47 AM 59.0 °F 57.2 °F 94% 30.31 in 2.5 mi ENE 9.2 mph - 0.00 in   Overcast
11:54 AM 59.0 °F 57.2 °F 94% 30.31 in 8.0 mi ENE 9.2 mph - 0.00 in   Overcast
11:56 AM 59.0 °F 57.9 °F 96% 30.31 in 9.0 mi ENE 10.4 mph - 0.00 in   Overcast
12:56 PM 60.1 °F 57.9 °F 93% 30.28 in 10.0 mi East 9.2 mph - N/A   Overcast
1:56 PM 61.0 °F 59.0 °F 93% 30.26 in 8.0 mi East 9.2 mph - N/A   Overcast
2:56 PM 61.0 °F 59.0 °F 93% 30.26 in 10.0 mi NE 5.8 mph - N/A   Overcast
3:38 PM 60.8 °F 60.8 °F 100% 30.26 in 1.8 mi East 6.9 mph - N/A   Overcast
3:51 PM 60.8 °F 60.8 °F 100% 30.26 in 3.0 mi East 4.6 mph - N/A   Overcast
3:56 PM 61.0 °F 61.0 °F 100% 30.26 in 2.5 mi East 5.8 mph - N/A   Overcast
4:08 PM 60.8 °F 60.8 °F 100% 30.26 in 1.8 mi East 4.6 mph - N/A   Overcast
4:24 PM 60.8 °F 60.8 °F 100% 30.26 in 2.0 mi Variable 3.5 mph - N/A   Overcast
4:40 PM 60.8 °F 60.8 °F 100% 30.25 in 1.5 mi East 4.6 mph - 0.01 in Rain Light Rain
4:56 PM 61.0 °F 60.1 °F 97% 30.26 in 1.5 mi East 8.1 mph - 0.01 in Rain Light Rain
5:02 PM 60.8 °F 60.8 °F 100% 30.25 in 3.0 mi East 4.6 mph - 0.00 in Rain Light Rain
5:56 PM 61.0 °F 60.1 °F 97% 30.26 in 4.0 mi East 5.8 mph - 0.00 in Rain Light Rain
6:56 PM 61.0 °F 60.1 °F 97% 30.27 in 4.0 mi East 3.5 mph - 0.00 in Rain Light Rain
7:37 PM 60.8 °F 60.8 °F 100% 30.27 in 6.0 mi Calm Calm - 0.00 in   Overcast
7:50 PM 60.8 °F 60.8 °F 100% 30.27 in 1.8 mi NE 3.5 mph - 0.01 in   Overcast
7:56 PM 60.1 °F 60.1 °F 100% 30.27 in 0.8 mi ENE 3.5 mph - 0.01 in   Overcast
8:48 PM 60.8 °F 60.8 °F 100% 30.27 in 0.5 mi Calm Calm - N/A Fog Fog
8:56 PM 60.1 °F 60.1 °F 100% 30.28 in 0.5 mi Calm Calm - N/A Fog Fog
9:15 PM 60.8 °F 60.8 °F 100% 30.27 in 0.8 mi ENE 3.5 mph - N/A   Overcast
9:39 PM 60.8 °F 60.8 °F 100% 30.28 in 0.5 mi Calm Calm - N/A Fog Fog
9:56 PM 60.1 °F 60.1 °F 100% 30.28 in 0.5 mi ENE 3.5 mph - N/A Fog Fog
10:56 PM 60.1 °F 60.1 °F 100% 30.28 in 0.2 mi Calm Calm - N/A Fog Fog
11:13 PM 60.8 °F 60.8 °F 100% 30.27 in 0.5 mi Calm Calm - N/A Fog Fog
11:45 PM 60.8 °F 60.8 °F 100% 30.27 in 0.5 mi Calm Calm - N/A Fog Fog
11:56 PM 60.1 °F 60.1 °F 100% 30.27 in 0.5 mi Calm Calm - N/A Fog Fog